sat.trackr.live / text

‹ back to catalog

ONEWEB-0038

NORAD 45145 · 2020-008Q

PAYLOAD ACTIVE UNKNOWN

§ Identity

Operator
Country
UK
Launch date
2020-02-06
Launch site
TYMSC
Launch vehicle
Mass (kg)
RCS (m²)

Purposes: comms

External: N2YO · Heavens-Above · Gunter

§ Orbital elements

Epoch: 2026-05-25T03:03:14.281632Z

Period
109.81 min
Inclination
87.8923°
Eccentricity
0.0002188
Mean motion
13.11414097 rev/d
Perigee alt
1,216.0 km
Apogee alt
1,219.4 km
Semi-major
7,595.8 km
B*
1.1086e-3
RAAN
25.6620°
Arg perigee
32.6163°
Mean anomaly
327.5100°
Rev number
30,730

§ Raw data

ONEWEB-00381 45145U 20008Q   26145.12724863  .00000406  00000+0  11086-2 0  99972 45145  87.8923  25.6620 0002188  32.6163 327.5100 13.11414097307301

JSON: /api/v1/satellites/45145 · /tle

For live sub-satellite position, see the globe view (requires WebGL).

§ Visibility from observer

Set your observer location to see the next 7 days of passes ≥ 10°. The values pass through the URL so the page stays shareable.

No JS? Fill the form by hand. The geolocation button needs JavaScript.